| time (UTC) | temp F | wind direction | speed MPH | gust MPH | rain 1hr in | rain 24hr in | rain mn in | humidity % | barometer mb |
| 20260902115929 | 74 | 261 | 0.0 | 0.0 | 0.00 | 0.00 | 0.00 | 58 | 1023.1 |
| 20260902115720 | 73 | 243 | 0.0 | 6.0 | 0.00 | 0.00 | 0.00 | 61 | 1023.1 |
| 20260902115151 | 73 | 283 | 0.0 | 3.0 | 0.00 | 0.00 | 0.00 | 54 | 1023.2 |
| 20260902114949 | 73 | 249 | 0.0 | 3.0 | 0.00 | 0.00 | 0.00 | 59 | 1023.2 |
| 20260902114739 | 73 | 316 | 0.0 | 3.0 | 0.00 | 0.00 | 0.00 | 54 | 1023.2 |
| 20260902114535 | 74 | 288 | 0.0 | 3.0 | 0.00 | 0.00 | 0.00 | 55 | 1023.2 |
| 20260902114332 | 73 | 283 | 0.0 | 0.0 | 0.00 | 0.00 | 0.00 | 56 | 1023.2 |
| 20260902114124 | 73 | 261 | 0.0 | 6.0 | 0.00 | 0.00 | 0.00 | 56 | 1023.2 |
| 20260902113922 | 73 | 254 | 1.0 | 6.0 | 0.00 | 0.00 | 0.00 | 58 | 1023.2 |
| 20260902113402 | 73 | 296 | 0.0 | 4.0 | 0.00 | 0.00 | 0.00 | 58 | 1023.2 |
| 20260902113203 | 73 | 331 | 0.0 | 3.0 | 0.00 | 0.00 | 0.00 | 54 | 1023.2 |
| 20260902112956 | 73 | 220 | 0.0 | 3.0 | 0.00 | 0.00 | 0.00 | 55 | 1023.3 |
| 20260902112431 | 72 | 287 | 0.0 | 5.0 | 0.00 | 0.00 | 0.00 | 55 | 1023.3 |
| 20260902111909 | 72 | 296 | 1.0 | 5.0 | 0.00 | 0.00 | 0.00 | 53 | 1023.2 |
| 20260902111702 | 72 | 242 | 1.0 | 5.0 | 0.00 | 0.00 | 0.00 | 54 | 1023.2 |
| 20260902111456 | 72 | 300 | 1.0 | 5.0 | 0.00 | 0.00 | 0.00 | 52 | 1023.2 |
| 20260902111249 | 72 | 238 | 1.0 | 5.0 | 0.00 | 0.00 | 0.00 | 55 | 1023.3 |
| 20260902111045 | 72 | 286 | 0.0 | 5.0 | 0.00 | 0.00 | 0.00 | 54 | 1023.3 |
| 20260902110836 | 73 | 270 | 0.0 | 5.0 | 0.00 | 0.00 | 0.00 | 54 | 1023.2 |
| 20260902110317 | 73 | 224 | 0.0 | 0.0 | 0.00 | 0.00 | 0.00 | 58 | 1023.3 |
| 20260902110107 | 73 | 266 | 0.0 | 1.0 | 0.00 | 0.00 | 0.00 | 58 | 1023.3 |
| 20260902105858 | 72 | 289 | 0.0 | 1.0 | 0.00 | 0.00 | 0.00 | 59 | 1023.2 |
| 20260902105648 | 72 | 224 | 0.0 | 1.0 | 0.00 | 0.00 | 0.00 | 58 | 1023.3 |
| 20260902105444 | 72 | 310 | 0.0 | 1.0 | 0.00 | 0.00 | 0.00 | 59 | 1023.3 |
| 20260902104908 | 71 | 249 | 0.0 | 5.0 | 0.00 | 0.00 | 0.00 | 58 | 1023.3 |
| 20260902104707 | 71 | 251 | 0.0 | 5.0 | 0.00 | 0.00 | 0.00 | 58 | 1023.3 |
| 20260902104500 | 71 | 304 | 0.0 | 5.0 | 0.00 | 0.00 | 0.00 | 56 | 1023.3 |
| 20260902104256 | 71 | 303 | 0.0 | 5.0 | 0.00 | 0.00 | 0.00 | 58 | 1023.4 |
| 20260902104052 | 71 | 278 | 1.0 | 5.0 | 0.00 | 0.00 | 0.00 | 55 | 1023.4 |
| 20260902103853 | 70 | 273 | 1.0 | 5.0 | 0.00 | 0.00 | 0.00 | 57 | 1023.4 |
| 20260902103654 | 70 | 263 | 1.0 | 5.0 | 0.00 | 0.00 | 0.00 | 59 | 1023.5 |
| 20260902103454 | 70 | 284 | 1.0 | 5.0 | 0.00 | 0.00 | 0.00 | 56 | 1023.5 |
| 20260902102933 | 71 | 274 | 0.0 | 4.0 | 0.00 | 0.00 | 0.00 | 56 | 1023.5 |
| 20260902102727 | 71 | 302 | 0.0 | 2.0 | 0.00 | 0.00 | 0.00 | 58 | 1023.5 |
| 20260902102528 | 71 | 281 | 0.0 | 1.0 | 0.00 | 0.00 | 0.00 | 58 | 1023.7 |
| 20260902102329 | 71 | 285 | 0.0 | 1.0 | 0.00 | 0.00 | 0.00 | 58 | 1023.7 |
| 20260902102122 | 71 | 306 | 0.0 | 1.0 | 0.00 | 0.00 | 0.00 | 59 | 1023.6 |
| 20260902101923 | 71 | 49 | 0.0 | 1.0 | 0.00 | 0.00 | 0.00 | 62 | 1023.6 |
| 20260902101357 | 71 | 288 | 0.0 | 1.0 | 0.00 | 0.00 | 0.00 | 61 | 1023.7 |
| 20260902101153 | 70 | 89 | 0.0 | 0.0 | 0.00 | 0.00 | 0.00 | 58 | 1023.7 |
| 20260902100626 | 71 | 278 | 0.0 | 2.0 | 0.00 | 0.00 | 0.00 | 59 | 1023.7 |
| 20260902100425 | 71 | 276 | 0.0 | 2.0 | 0.00 | 0.00 | 0.00 | 61 | 1023.7 |
| 20260902100222 | 71 | 290 | 0.0 | 0.0 | 0.00 | 0.00 | 0.00 | 62 | 1023.7 |
| 20260902095654 | 70 | 302 | 0.0 | 3.0 | 0.00 | 0.00 | 0.00 | 59 | 1023.7 |
| 20260902095446 | 70 | 281 | 0.0 | 3.0 | 0.00 | 0.00 | 0.00 | 63 | 1023.7 |
| 20260902095239 | 70 | 237 | 0.0 | 3.0 | 0.00 | 0.00 | 0.00 | 62 | 1023.6 |
| 20260902095040 | 71 | 232 | 0.0 | 3.0 | 0.00 | 0.00 | 0.00 | 62 | 1023.7 |
| 20260902094830 | 70 | 241 | 0.0 | 1.0 | 0.00 | 0.00 | 0.00 | 63 | 1023.7 |
| 20260902094628 | 70 | 224 | 0.0 | 3.0 | 0.00 | 0.00 | 0.00 | 62 | 1023.7 |
| 20260902093740 | 70 | 241 | 0.0 | 3.0 | 0.00 | 0.00 | 0.00 | 64 | 1023.7 |
| 20260902093535 | 69 | 241 | 0.0 | 3.0 | 0.00 | 0.00 | 0.00 | 65 | 1023.6 |
| 20260902093329 | 69 | 253 | 0.0 | 3.0 | 0.00 | 0.00 | 0.00 | 64 | 1023.7 |
| 20260902093124 | 69 | 244 | 0.0 | 3.0 | 0.00 | 0.00 | 0.00 | 66 | 1023.7 |
| 20260902092923 | 69 | 226 | 0.0 | 3.0 | 0.00 | 0.00 | 0.00 | 64 | 1023.8 |
| 20260902092724 | 68 | 240 | 0.0 | 3.0 | 0.00 | 0.00 | 0.00 | 66 | 1023.7 |
| 20260902092517 | 68 | 238 | 0.0 | 2.0 | 0.00 | 0.00 | 0.00 | 67 | 1023.7 |
| 20260902092316 | 68 | 287 | 0.0 | 2.0 | 0.00 | 0.00 | 0.00 | 62 | 1023.7 |
| 20260902092109 | 68 | 236 | 0.0 | 2.0 | 0.00 | 0.00 | 0.00 | 66 | 1023.8 |
| 20260902091907 | 68 | 232 | 0.0 | 2.0 | 0.00 | 0.00 | 0.00 | 65 | 1023.7 |
| 20260902091708 | 68 | 259 | 0.0 | 2.0 | 0.00 | 0.00 | 0.00 | 67 | 1023.7 |
| 20260902091506 | 67 | 297 | 0.0 | 1.0 | 0.00 | 0.00 | 0.00 | 69 | 1023.7 |
| 20260902091305 | 67 | 217 | 0.0 | 1.0 | 0.00 | 0.00 | 0.00 | 69 | 1023.7 |
| 20260902091104 | 67 | 228 | 0.0 | 1.0 | 0.00 | 0.00 | 0.00 | 71 | 1023.8 |
| 20260902090856 | 66 | 292 | 0.0 | 0.0 | 0.00 | 0.00 | 0.00 | 71 | 1023.7 |
| 20260902090330 | 65 | 295 | 0.0 | 3.0 | 0.00 | 0.00 | 0.00 | 70 | 1023.7 |
| 20260902090120 | 65 | 301 | 0.0 | 3.0 | 0.00 | 0.00 | 0.00 | 69 | 1023.7 |
| 20260902085917 | 65 | 284 | 0.0 | 3.0 | 0.00 | 0.00 | 0.00 | 71 | 1023.7 |
| 20260902085344 | 65 | 280 | 0.0 | 3.0 | 0.00 | 0.00 | 0.00 | 72 | 1023.7 |
| 20260902085143 | 65 | 323 | 0.0 | 3.0 | 0.00 | 0.00 | 0.00 | 72 | 1023.7 |
| 20260902084936 | 65 | 298 | 0.0 | 3.0 | 0.00 | 0.00 | 0.00 | 72 | 1023.7 |
| 20260902084728 | 65 | 280 | 0.0 | 3.0 | 0.00 | 0.00 | 0.00 | 74 | 1023.7 |
| 20260902084519 | 65 | 300 | 0.0 | 3.0 | 0.00 | 0.00 | 0.00 | 73 | 1023.7 |
| 20260902084310 | 65 | 280 | 0.0 | 3.0 | 0.00 | 0.00 | 0.00 | 74 | 1023.7 |
| 20260902084103 | 65 | 279 | 0.0 | 3.0 | 0.00 | 0.00 | 0.00 | 73 | 1023.6 |
| 20260902083902 | 65 | 276 | 0.0 | 3.0 | 0.00 | 0.00 | 0.00 | 74 | 1023.5 |
| 20260902083657 | 65 | 284 | 0.0 | 3.0 | 0.00 | 0.00 | 0.00 | 76 | 1023.4 |
| 20260902083457 | 65 | 255 | 0.0 | 2.0 | 0.00 | 0.00 | 0.00 | 76 | 1023.4 |
| 20260902083249 | 65 | 273 | 0.0 | 2.0 | 0.00 | 0.00 | 0.00 | 76 | 1023.5 |
| 20260902083044 | 65 | 266 | 0.0 | 2.0 | 0.00 | 0.00 | 0.00 | 77 | 1023.4 |
| 20260902082519 | 64 | 264 | 0.0 | 0.0 | 0.00 | 0.00 | 0.00 | 77 | 1023.2 |
| 20260902082320 | 64 | 323 | 0.0 | 0.0 | 0.00 | 0.00 | 0.00 | 77 | 1023.2 |
| 20260902082113 | 64 | 336 | 0.0 | 0.0 | 0.00 | 0.00 | 0.00 | 76 | 1023.2 |
| 20260902081910 | 64 | 336 | 0.0 | 0.0 | 0.00 | 0.00 | 0.00 | 75 | 1023.2 |
| 20260902081706 | 65 | 336 | 0.0 | 0.0 | 0.00 | 0.00 | 0.00 | 74 | 1023.2 |
| 20260902081506 | 65 | 336 | 0.0 | 0.0 | 0.00 | 0.00 | 0.00 | 75 | 1023.1 |
| 20260902081307 | 65 | 336 | 0.0 | 0.0 | 0.00 | 0.00 | 0.00 | 74 | 1023.0 |
| 20260902081107 | 65 | 336 | 0.0 | 0.0 | 0.00 | 0.00 | 0.00 | 74 | 1023.0 |
| 20260902080903 | 65 | 336 | 0.0 | 0.0 | 0.00 | 0.00 | 0.00 | 75 | 1023.0 |
| 20260902080653 | 65 | 51 | 0.0 | 0.0 | 0.00 | 0.00 | 0.00 | 76 | 1023.0 |
| 20260902080443 | 65 | 51 | 0.0 | 3.0 | 0.00 | 0.00 | 0.00 | 75 | 1023.0 |
| 20260902080236 | 65 | 351 | 0.0 | 3.0 | 0.00 | 0.00 | 0.00 | 75 | 1023.0 |
| 20260902075714 | 66 | 89 | 0.0 | 2.0 | 0.00 | 0.00 | 0.00 | 75 | 1022.9 |
| 20260902075512 | 65 | 58 | 0.0 | 0.0 | 0.00 | 0.00 | 0.00 | 77 | 1023.0 |
| 20260902075306 | 65 | 272 | 0.0 | 0.0 | 0.00 | 0.00 | 0.00 | 77 | 1022.9 |
| 20260902075100 | 65 | 250 | 0.0 | 2.0 | 0.00 | 0.00 | 0.00 | 75 | 1023.0 |
| 20260902074853 | 65 | 278 | 0.0 | 2.0 | 0.00 | 0.00 | 0.00 | 76 | 1022.9 |
| 20260902074649 | 65 | 266 | 0.0 | 2.0 | 0.00 | 0.00 | 0.00 | 76 | 1022.9 |
| 20260902074446 | 65 | 245 | 0.0 | 2.0 | 0.00 | 0.00 | 0.00 | 75 | 1022.9 |
| 20260902074235 | 65 | 258 | 0.0 | 2.0 | 0.00 | 0.00 | 0.00 | 75 | 1022.9 |
| 20260902074026 | 65 | 245 | 0.0 | 2.0 | 0.00 | 0.00 | 0.00 | 73 | 1023.0 |
| 20260902073821 | 65 | 277 | 0.0 | 2.0 | 0.00 | 0.00 | 0.00 | 73 | 1022.9 |
| 20260902073614 | 65 | 246 | 0.0 | 2.0 | 0.00 | 0.00 | 0.00 | 75 | 1022.9 |
| 20260902073406 | 65 | 216 | 0.0 | 2.0 | 0.00 | 0.00 | 0.00 | 73 | 1022.9 |
| 20260902072838 | 65 | 253 | 0.0 | 0.0 | 0.00 | 0.00 | 0.00 | 72 | 1022.9 |
| 20260902072318 | 65 | 322 | 0.0 | 0.0 | 0.00 | 0.00 | 0.00 | 71 | 1022.8 |
| 20260902072109 | 65 | 322 | 0.0 | 0.0 | 0.00 | 0.00 | 0.00 | 71 | 1022.9 |
| 20260902071902 | 65 | 322 | 0.0 | 0.0 | 0.00 | 0.00 | 0.00 | 71 | 1022.8 |
| 20260902071652 | 65 | 320 | 0.0 | 0.0 | 0.00 | 0.00 | 0.00 | 72 | 1022.8 |
| 20260902071444 | 64 | 319 | 0.0 | 0.0 | 0.00 | 0.00 | 0.00 | 73 | 1022.8 |
| 20260902070603 | 63 | 110 | 1.0 | 4.0 | 0.00 | 0.00 | 0.00 | 76 | 1022.8 |
| 20260902070352 | 62 | 130 | 1.0 | 4.0 | 0.00 | 0.00 | 0.00 | 77 | 1022.6 |
| 20260902070147 | 62 | 93 | 1.0 | 4.0 | 0.00 | 0.00 | 0.00 | 77 | 1022.7 |
| 20260902065937 | 61 | 101 | 1.0 | 4.0 | 0.00 | 0.00 | 0.00 | 78 | 1022.6 |
| 20260902065410 | 60 | 115 | 1.0 | 7.0 | 0.00 | 0.00 | 0.00 | 81 | 1022.6 |
| 20260902065200 | 59 | 96 | 2.0 | 7.0 | 0.00 | 0.00 | 0.00 | 81 | 1022.6 |
| 20260902064633 | 60 | 123 | 3.0 | 7.0 | 0.00 | 0.00 | 0.00 | 80 | 1022.5 |
| 20260902064430 | 60 | 117 | 3.0 | 7.0 | 0.00 | 0.00 | 0.00 | 79 | 1022.6 |
| 20260902064224 | 61 | 137 | 3.0 | 7.0 | 0.00 | 0.00 | 0.00 | 77 | 1022.6 |
| 20260902063340 | 63 | 129 | 1.0 | 3.0 | 0.00 | 0.00 | 0.00 | 72 | 1022.6 |
| 20260902063138 | 63 | 124 | 0.0 | 3.0 | 0.00 | 0.00 | 0.00 | 72 | 1022.6 |
| 20260902062927 | 63 | 113 | 0.0 | 3.0 | 0.00 | 0.00 | 0.00 | 72 | 1022.6 |
| 20260902062722 | 63 | 132 | 0.0 | 2.0 | 0.00 | 0.00 | 0.00 | 74 | 1022.7 |
| 20260902062518 | 63 | 112 | 0.0 | 1.0 | 0.00 | 0.00 | 0.00 | 73 | 1022.6 |
| 20260902062309 | 62 | 96 | 0.0 | 1.0 | 0.00 | 0.00 | 0.00 | 75 | 1022.6 |
| 20260902062102 | 62 | 118 | 0.0 | 1.0 | 0.00 | 0.00 | 0.00 | 76 | 1022.6 |
| 20260902061852 | 61 | 109 | 0.0 | 0.0 | 0.00 | 0.00 | 0.00 | 76 | 1022.6 |
| 20260902061442 | 61 | 68 | 0.0 | 0.0 | 0.00 | 0.00 | 0.00 | 75 | 1022.7 |
| 20260902061238 | 61 | 198 | 0.0 | 0.0 | 0.00 | 0.00 | 0.00 | 75 | 1022.8 |
| 20260902061036 | 60 | 210 | 0.0 | 0.0 | 0.00 | 0.00 | 0.00 | 75 | 1022.8 |
| 20260902060830 | 60 | 217 | 0.0 | 3.0 | 0.00 | 0.00 | 0.00 | 75 | 1022.7 |
| 20260902060620 | 60 | 148 | 0.0 | 3.0 | 0.00 | 0.00 | 0.00 | 75 | 1022.8 |
| 20260902060414 | 60 | 269 | 0.0 | 3.0 | 0.00 | 0.00 | 0.00 | 76 | 1022.7 |
| 20260902060206 | 59 | 233 | 0.0 | 1.0 | 0.00 | 0.00 | 0.00 | 77 | 1022.9 |
| 20260902055958 | 59 | 246 | 0.0 | 0.0 | 0.00 | 0.00 | 0.00 | 78 | 1022.8 |
| 20260902055750 | 58 | 236 | 0.0 | 3.0 | 0.00 | 0.00 | 0.00 | 78 | 1022.8 |
| 20260902055551 | 58 | 244 | 0.0 | 3.0 | 0.00 | 0.00 | 0.00 | 79 | 1022.9 |
| 20260902055343 | 58 | 245 | 0.0 | 0.0 | 0.00 | 0.00 | 0.00 | 79 | 1022.9 |
| 20260902055142 | 57 | 212 | 0.0 | 0.0 | 0.00 | 0.00 | 0.00 | 79 | 1022.8 |
| 20260902054941 | 57 | 227 | 0.0 | 0.0 | 0.00 | 0.00 | 0.00 | 80 | 1022.8 |
| 20260902054741 | 57 | 227 | 0.0 | 1.0 | 0.00 | 0.00 | 0.00 | 80 | 1022.8 |
| 20260902054534 | 57 | 257 | 0.0 | 0.0 | 0.00 | 0.00 | 0.00 | 80 | 1022.8 |
| 20260902054324 | 57 | 257 | 0.0 | 0.0 | 0.00 | 0.00 | 0.00 | 80 | 1022.8 |
| 20260902054119 | 57 | 257 | 0.0 | 0.0 | 0.00 | 0.00 | 0.00 | 80 | 1022.8 |
| 20260902053920 | 57 | 245 | 0.0 | 0.0 | 0.00 | 0.00 | 0.00 | 80 | 1022.8 |
| 20260902053351 | 57 | 255 | 0.0 | 0.0 | 0.00 | 0.00 | 0.00 | 80 | 1022.8 |
| 20260902053150 | 57 | 357 | 0.0 | 0.0 | 0.00 | 0.00 | 0.00 | 79 | 1022.7 |
| 20260902052946 | 57 | 357 | 0.0 | 0.0 | 0.00 | 0.00 | 0.00 | 80 | 1022.8 |
| 20260902052737 | 57 | 357 | 0.0 | 0.0 | 0.00 | 0.00 | 0.00 | 80 | 1022.8 |
| 20260902052535 | 56 | 357 | 0.0 | 0.0 | 0.00 | 0.00 | 0.00 | 81 | 1022.8 |
| 20260902052008 | 56 | 357 | 0.0 | 0.0 | 0.00 | 0.00 | 0.00 | 82 | 1022.6 |
| 20260902051444 | 56 | 357 | 0.0 | 0.0 | 0.00 | 0.00 | 0.00 | 81 | 1022.5 |
| 20260902051236 | 56 | 357 | 0.0 | 0.0 | 0.00 | 0.00 | 0.00 | 82 | 1022.5 |
| 20260902051028 | 56 | 357 | 0.0 | 0.0 | 0.00 | 0.00 | 0.00 | 81 | 1022.5 |
| 20260902050821 | 56 | 357 | 0.0 | 0.0 | 0.00 | 0.00 | 0.00 | 81 | 1022.6 |
| 20260902050257 | 56 | 357 | 0.0 | 0.0 | 0.00 | 0.00 | 0.00 | 82 | 1022.4 |
| 20260902050051 | 56 | 357 | 0.0 | 0.0 | 0.00 | 0.00 | 0.00 | 82 | 1022.4 |
| 20260902045849 | 56 | 357 | 0.0 | 0.0 | 0.00 | 0.00 | 0.00 | 82 | 1022.4 |
| 20260902045644 | 56 | 357 | 0.0 | 0.0 | 0.00 | 0.00 | 0.00 | 82 | 1022.4 |
| 20260902045440 | 56 | 357 | 0.0 | 0.0 | 0.00 | 0.00 | 0.00 | 82 | 1022.4 |
| 20260902045233 | 56 | 359 | 0.0 | 0.0 | 0.00 | 0.00 | 0.00 | 82 | 1022.3 |
| 20260902044710 | 55 | 266 | 0.0 | 0.0 | 0.00 | 0.00 | 0.00 | 82 | 1022.2 |
| 20260902044508 | 56 | 230 | 0.0 | 3.0 | 0.00 | 0.00 | 0.00 | 82 | 1022.2 |
| 20260902044301 | 56 | 118 | 1.0 | 3.0 | 0.00 | 0.00 | 0.00 | 83 | 1022.3 |
| 20260902044048 | 56 | 114 | 1.0 | 3.0 | 0.00 | 0.00 | 0.00 | 84 | 1022.2 |
| 20260902043839 | 56 | 84 | 1.0 | 3.0 | 0.00 | 0.00 | 0.00 | 83 | 1022.3 |
| 20260902043636 | 56 | 131 | 1.0 | 3.0 | 0.00 | 0.00 | 0.00 | 83 | 1022.2 |
| 20260902043435 | 56 | 101 | 0.0 | 3.0 | 0.00 | 0.00 | 0.00 | 83 | 1022.2 |
| 20260902042914 | 56 | 92 | 0.0 | 2.0 | 0.00 | 0.00 | 0.00 | 82 | 1022.2 |
| 20260902042714 | 57 | 103 | 0.0 | 2.0 | 0.00 | 0.00 | 0.00 | 82 | 1022.3 |
| 20260902042508 | 57 | 86 | 0.0 | 2.0 | 0.00 | 0.00 | 0.00 | 82 | 1022.2 |
| 20260902042259 | 57 | 82 | 0.0 | 2.0 | 0.00 | 0.00 | 0.00 | 82 | 1022.3 |
| 20260902042050 | 57 | 91 | 0.0 | 2.0 | 0.00 | 0.00 | 0.00 | 81 | 1022.3 |
| 20260902041847 | 57 | 94 | 0.0 | 2.0 | 0.00 | 0.00 | 0.00 | 81 | 1022.2 |
| 20260902041644 | 57 | 94 | 0.0 | 2.0 | 0.00 | 0.00 | 0.00 | 81 | 1022.2 |
| 20260902041442 | 57 | 120 | 0.0 | 2.0 | 0.00 | 0.00 | 0.00 | 80 | 1022.2 |
| 20260902041233 | 58 | 120 | 0.0 | 2.0 | 0.00 | 0.00 | 0.00 | 80 | 1022.2 |
| 20260902041025 | 58 | 97 | 0.0 | 2.0 | 0.00 | 0.00 | 0.00 | 79 | 1022.2 |
| 20260902035505 | 58 | 232 | 0.0 | 0.0 | 0.00 | 0.00 | 0.00 | 79 | 1022.2 |
| 20260902035300 | 58 | 232 | 0.0 | 0.0 | 0.00 | 0.00 | 0.00 | 79 | 1022.3 |
| 20260902035050 | 58 | 233 | 0.0 | 0.0 | 0.00 | 0.00 | 0.00 | 79 | 1022.3 |
| 20260902034845 | 58 | 235 | 0.0 | 0.0 | 0.00 | 0.00 | 0.00 | 79 | 1022.2 |
| 20260902034313 | 58 | 235 | 0.0 | 0.0 | 0.00 | 0.00 | 0.00 | 79 | 1022.3 |
| 20260902033750 | 59 | 235 | 0.0 | 0.0 | 0.00 | 0.00 | 0.00 | 78 | 1022.2 |
| 20260902033545 | 59 | 235 | 0.0 | 0.0 | 0.00 | 0.00 | 0.00 | 78 | 1022.3 |
| 20260902033338 | 59 | 234 | 0.0 | 2.0 | 0.00 | 0.00 | 0.00 | 78 | 1022.2 |
| 20260902033137 | 59 | 249 | 0.0 | 2.0 | 0.00 | 0.00 | 0.00 | 78 | 1022.2 |
| 20260902032930 | 59 | 242 | 0.0 | 2.0 | 0.00 | 0.00 | 0.00 | 77 | 1022.2 |
| 20260902032725 | 59 | 243 | 0.0 | 3.0 | 0.00 | 0.00 | 0.00 | 77 | 1022.2 |
| 20260902032516 | 59 | 226 | 1.0 | 3.0 | 0.00 | 0.00 | 0.00 | 77 | 1022.2 |
| 20260902032310 | 59 | 224 | 1.0 | 3.0 | 0.00 | 0.00 | 0.00 | 77 | 1022.3 |
| 20260902032108 | 59 | 221 | 1.0 | 3.0 | 0.00 | 0.00 | 0.00 | 77 | 1022.2 |
| 20260902031909 | 59 | 236 | 1.0 | 3.0 | 0.00 | 0.00 | 0.00 | 77 | 1022.1 |
| 20260902031709 | 59 | 223 | 1.0 | 3.0 | 0.00 | 0.00 | 0.00 | 77 | 1022.2 |
| 20260902031147 | 59 | 226 | 0.0 | 3.0 | 0.00 | 0.00 | 0.00 | 78 | 1022.3 |
| 20260902030622 | 59 | 238 | 0.0 | 1.0 | 0.00 | 0.00 | 0.00 | 78 | 1022.3 |
| 20260902025732 | 60 | 245 | 0.0 | 0.0 | 0.00 | 0.00 | 0.00 | 76 | 1022.4 |
| 20260902025523 | 60 | 236 | 0.0 | 2.0 | 0.00 | 0.00 | 0.00 | 75 | 1022.4 |
| 20260902025314 | 60 | 236 | 0.0 | 5.0 | 0.00 | 0.00 | 0.00 | 75 | 1022.4 |
| 20260902025114 | 60 | 231 | 0.0 | 5.0 | 0.00 | 0.00 | 0.00 | 76 | 1022.3 |
| 20260902024907 | 60 | 226 | 1.0 | 5.0 | 0.00 | 0.00 | 0.00 | 76 | 1022.3 |
| 20260902024701 | 60 | 226 | 1.0 | 5.0 | 0.00 | 0.00 | 0.00 | 76 | 1022.4 |
| 20260902024458 | 60 | 236 | 1.0 | 5.0 | 0.00 | 0.00 | 0.00 | 76 | 1022.4 |
| 20260902024249 | 60 | 227 | 1.0 | 5.0 | 0.00 | 0.00 | 0.00 | 75 | 1022.3 |
| 20260902024038 | 60 | 233 | 1.0 | 5.0 | 0.00 | 0.00 | 0.00 | 75 | 1022.4 |
| 20260902023838 | 61 | 229 | 2.0 | 5.0 | 0.00 | 0.00 | 0.00 | 74 | 1022.3 |
| 20260902023633 | 61 | 247 | 1.0 | 5.0 | 0.00 | 0.00 | 0.00 | 73 | 1022.2 |
| 20260902023428 | 61 | 212 | 1.0 | 5.0 | 0.00 | 0.00 | 0.00 | 73 | 1022.2 |
| 20260902023223 | 60 | 220 | 1.0 | 4.0 | 0.00 | 0.00 | 0.00 | 73 | 1022.2 |
| 20260902023018 | 60 | 245 | 1.0 | 4.0 | 0.00 | 0.00 | 0.00 | 74 | 1022.2 |
| 20260902022808 | 60 | 220 | 1.0 | 3.0 | 0.00 | 0.00 | 0.00 | 74 | 1022.2 |
| 20260902022608 | 60 | 249 | 1.0 | 3.0 | 0.00 | 0.00 | 0.00 | 74 | 1022.2 |
| 20260902022359 | 60 | 229 | 1.0 | 4.0 | 0.00 | 0.00 | 0.00 | 74 | 1022.3 |
| 20260902022155 | 60 | 226 | 1.0 | 4.0 | 0.00 | 0.00 | 0.00 | 75 | 1022.3 |
| 20260902021953 | 60 | 213 | 1.0 | 4.0 | 0.00 | 0.00 | 0.00 | 75 | 1022.3 |
| 20260902021429 | 61 | 233 | 1.0 | 4.0 | 0.00 | 0.00 | 0.00 | 74 | 1022.3 |
| 20260902021229 | 61 | 240 | 1.0 | 4.0 | 0.00 | 0.00 | 0.00 | 74 | 1022.2 |
| 20260902021030 | 61 | 247 | 2.0 | 4.0 | 0.00 | 0.00 | 0.00 | 74 | 1022.3 |
| 20260902020829 | 61 | 236 | 1.0 | 4.0 | 0.00 | 0.00 | 0.00 | 74 | 1022.3 |
| 20260902020624 | 61 | 225 | 1.0 | 4.0 | 0.00 | 0.00 | 0.00 | 74 | 1022.3 |
| 20260902020100 | 61 | 238 | 1.0 | 4.0 | 0.00 | 0.00 | 0.00 | 74 | 1022.2 |
| 20260902014903 | 61 | 277 | 2.0 | 4.0 | 0.00 | 0.00 | 0.00 | 74 | 1022.2 |
| 20260902014658 | 61 | 236 | 2.0 | 6.0 | 0.00 | 0.00 | 0.00 | 74 | 1022.2 |
| 20260902014453 | 61 | 201 | 2.0 | 6.0 | 0.00 | 0.00 | 0.00 | 74 | 1022.2 |
| 20260902014253 | 61 | 223 | 2.0 | 6.0 | 0.00 | 0.00 | 0.00 | 74 | 1022.2 |
| 20260902014047 | 61 | 230 | 2.0 | 6.0 | 0.00 | 0.00 | 0.00 | 74 | 1022.2 |
| 20260902013847 | 61 | 240 | 2.0 | 6.0 | 0.00 | 0.00 | 0.00 | 74 | 1022.2 |
| 20260902013641 | 61 | 238 | 2.0 | 6.0 | 0.00 | 0.00 | 0.00 | 73 | 1022.3 |
| 20260902013122 | 61 | 238 | 1.0 | 6.0 | 0.00 | 0.00 | 0.00 | 74 | 1022.3 |
| 20260902012921 | 61 | 264 | 1.0 | 6.0 | 0.00 | 0.00 | 0.00 | 74 | 1022.4 |
| 20260902012712 | 61 | 239 | 1.0 | 4.0 | 0.00 | 0.00 | 0.00 | 74 | 1022.3 |
| 20260902012150 | 60 | 264 | 0.0 | 4.0 | 0.00 | 0.00 | 0.00 | 74 | 1022.4 |
| 20260902011940 | 60 | 251 | 0.0 | 3.0 | 0.00 | 0.00 | 0.00 | 75 | 1022.4 |
| 20260902011731 | 60 | 215 | 0.0 | 3.0 | 0.00 | 0.00 | 0.00 | 75 | 1022.4 |
| 20260902011524 | 60 | 245 | 0.0 | 3.0 | 0.00 | 0.00 | 0.00 | 76 | 1022.4 |
| 20260902011316 | 60 | 234 | 0.0 | 3.0 | 0.00 | 0.00 | 0.00 | 76 | 1022.3 |
| 20260902011117 | 59 | 250 | 0.0 | 2.0 | 0.00 | 0.00 | 0.00 | 77 | 1022.4 |
| 20260902010917 | 59 | 235 | 0.0 | 2.0 | 0.00 | 0.00 | 0.00 | 78 | 1022.5 |
| 20260902010707 | 58 | 222 | 0.0 | 2.0 | 0.00 | 0.00 | 0.00 | 78 | 1022.5 |
| 20260902005826 | 57 | 140 | 1.0 | 4.0 | 0.00 | 0.00 | 0.00 | 78 | 1022.5 |
| 20260902005617 | 57 | 116 | 1.0 | 4.0 | 0.00 | 0.00 | 0.00 | 78 | 1022.6 |
| 20260902005411 | 57 | 94 | 2.0 | 4.0 | 0.00 | 0.00 | 0.00 | 78 | 1022.5 |
| 20260902005212 | 58 | 96 | 2.0 | 4.0 | 0.00 | 0.00 | 0.00 | 78 | 1022.6 |
| 20260902005007 | 58 | 99 | 2.0 | 4.0 | 0.00 | 0.00 | 0.00 | 78 | 1022.6 |
| 20260902004758 | 58 | 108 | 2.0 | 4.0 | 0.00 | 0.00 | 0.00 | 78 | 1022.6 |
| 20260902004550 | 58 | 117 | 1.0 | 4.0 | 0.00 | 0.00 | 0.00 | 78 | 1022.6 |
| 20260902004345 | 58 | 99 | 1.0 | 4.0 | 0.00 | 0.00 | 0.00 | 78 | 1022.6 |
| 20260902004145 | 58 | 120 | 1.0 | 4.0 | 0.00 | 0.00 | 0.00 | 78 | 1022.6 |
| 20260902003936 | 57 | 117 | 1.0 | 3.0 | 0.00 | 0.00 | 0.00 | 78 | 1022.5 |
| 20260902003728 | 57 | 131 | 1.0 | 3.0 | 0.00 | 0.00 | 0.00 | 78 | 1022.6 |
| 20260902003205 | 57 | 121 | 1.0 | 3.0 | 0.00 | 0.00 | 0.00 | 79 | 1022.7 |
| 20260902003004 | 57 | 109 | 1.0 | 3.0 | 0.00 | 0.00 | 0.00 | 79 | 1022.6 |
| 20260902002800 | 57 | 110 | 1.0 | 3.0 | 0.00 | 0.00 | 0.00 | 79 | 1022.7 |
| 20260902002557 | 57 | 103 | 1.0 | 3.0 | 0.00 | 0.00 | 0.00 | 79 | 1022.6 |
| 20260902002351 | 58 | 115 | 1.0 | 3.0 | 0.00 | 0.00 | 0.00 | 79 | 1022.7 |
| 20260902002149 | 58 | 112 | 1.0 | 3.0 | 0.00 | 0.00 | 0.00 | 79 | 1022.6 |
| 20260902001944 | 58 | 97 | 1.0 | 3.0 | 0.00 | 0.00 | 0.00 | 79 | 1022.6 |
| 20260902001743 | 58 | 91 | 1.0 | 3.0 | 0.00 | 0.00 | 0.00 | 78 | 1022.7 |
| 20260902001538 | 58 | 106 | 0.0 | 3.0 | 0.00 | 0.00 | 0.00 | 78 | 1022.6 |
| 20260902001333 | 58 | 122 | 0.0 | 3.0 | 0.00 | 0.00 | 0.00 | 78 | 1022.5 |
| 20260902000807 | 58 | 111 | 0.0 | 1.0 | 0.00 | 0.00 | 0.00 | 77 | 1022.6 |
| 20260902000600 | 58 | 113 | 0.0 | 0.0 | 0.00 | 0.00 | 0.00 | 77 | 1022.6 |
| 20260902000035 | 58 | 113 | 0.0 | 0.0 | 0.00 | 0.00 | 0.00 | 77 | 1022.6 |
| 20260901235829 | 58 | 113 | 0.0 | 0.0 | 0.00 | 0.00 | 0.00 | 77 | 1022.6 |
| 20260901235623 | 58 | 113 | 0.0 | 0.0 | 0.00 | 0.00 | 0.00 | 77 | 1022.5 |
| 20260901235423 | 58 | 113 | 0.0 | 0.0 | 0.00 | 0.00 | 0.00 | 77 | 1022.6 |
| 20260901235221 | 58 | 113 | 0.0 | 1.0 | 0.00 | 0.00 | 0.00 | 77 | 1022.5 |
| 20260901235021 | 58 | 118 | 0.0 | 1.0 | 0.00 | 0.00 | 0.00 | 78 | 1022.5 |
| 20260901234810 | 58 | 126 | 0.0 | 6.0 | 0.00 | 0.00 | 0.00 | 78 | 1022.5 |
| 20260901234600 | 58 | 139 | 0.0 | 6.0 | 0.00 | 0.00 | 0.00 | 78 | 1022.4 |
| 20260901234401 | 58 | 91 | 0.0 | 6.0 | 0.00 | 0.00 | 0.00 | 79 | 1022.5 |
| 20260901234157 | 58 | 86 | 1.0 | 6.0 | 0.00 | 0.00 | 0.00 | 79 | 1022.5 |
| 20260901233949 | 58 | 106 | 1.0 | 6.0 | 0.00 | 0.00 | 0.00 | 79 | 1022.4 |
| 20260901233744 | 58 | 129 | 1.0 | 6.0 | 0.00 | 0.00 | 0.00 | 79 | 1022.4 |
| 20260901233536 | 58 | 79 | 2.0 | 6.0 | 0.00 | 0.00 | 0.00 | 79 | 1022.4 |
| 20260901233333 | 58 | 97 | 2.0 | 6.0 | 0.00 | 0.00 | 0.00 | 79 | 1022.4 |
| 20260901233122 | 58 | 98 | 2.0 | 6.0 | 0.00 | 0.00 | 0.00 | 79 | 1022.4 |
| 20260901232553 | 58 | 125 | 1.0 | 5.0 | 0.00 | 0.00 | 0.00 | 79 | 1022.3 |
| 20260901232345 | 58 | 116 | 1.0 | 3.0 | 0.00 | 0.00 | 0.00 | 78 | 1022.3 |
| 20260901232138 | 58 | 98 | 0.0 | 3.0 | 0.00 | 0.00 | 0.00 | 78 | 1022.4 |
| 20260901231928 | 58 | 104 | 0.0 | 3.0 | 0.00 | 0.00 | 0.00 | 77 | 1022.3 |
| 20260901231728 | 59 | 56 | 0.0 | 2.0 | 0.00 | 0.00 | 0.00 | 76 | 1022.3 |
| 20260901231518 | 59 | 65 | 0.0 | 1.0 | 0.00 | 0.00 | 0.00 | 76 | 1022.3 |
| 20260901231310 | 59 | 158 | 0.0 | 1.0 | 0.00 | 0.00 | 0.00 | 76 | 1022.3 |
| 20260901231103 | 58 | 154 | 0.0 | 1.0 | 0.00 | 0.00 | 0.00 | 76 | 1022.3 |
| 20260901230901 | 58 | 122 | 0.0 | 4.0 | 0.00 | 0.00 | 0.00 | 77 | 1022.3 |
| 20260901230655 | 58 | 6 | 1.0 | 4.0 | 0.00 | 0.00 | 0.00 | 78 | 1022.2 |
| 20260901230445 | 58 | 75 | 2.0 | 7.0 | 0.00 | 0.00 | 0.00 | 78 | 1022.3 |
| 20260901230238 | 58 | 103 | 2.0 | 7.0 | 0.00 | 0.00 | 0.00 | 78 | 1022.2 |
| 20260901230033 | 59 | 125 | 3.0 | 7.0 | 0.00 | 0.00 | 0.00 | 78 | 1022.3 |
| 20260901225822 | 59 | 147 | 3.0 | 7.0 | 0.00 | 0.00 | 0.00 | 78 | 1022.3 |
| 20260901225612 | 59 | 133 | 3.0 | 7.0 | 0.00 | 0.00 | 0.00 | 78 | 1022.3 |
| 20260901225409 | 58 | 105 | 4.0 | 7.0 | 0.00 | 0.00 | 0.00 | 78 | 1022.3 |
| 20260901225201 | 58 | 117 | 4.0 | 7.0 | 0.00 | 0.00 | 0.00 | 79 | 1022.3 |
| 20260901224955 | 58 | 94 | 4.0 | 7.0 | 0.00 | 0.00 | 0.00 | 79 | 1022.3 |
| 20260901224756 | 58 | 107 | 4.0 | 7.0 | 0.00 | 0.00 | 0.00 | 79 | 1022.2 |
| 20260901224550 | 58 | 129 | 4.0 | 7.0 | 0.00 | 0.00 | 0.00 | 80 | 1022.3 |
| 20260901224347 | 58 | 110 | 4.0 | 6.0 | 0.00 | 0.00 | 0.00 | 80 | 1022.3 |
| 20260901224138 | 58 | 110 | 4.0 | 7.0 | 0.00 | 0.00 | 0.00 | 80 | 1022.3 |
| 20260901223929 | 58 | 106 | 4.0 | 7.0 | 0.00 | 0.00 | 0.00 | 80 | 1022.3 |
| 20260901223404 | 58 | 115 | 4.0 | 7.0 | 0.00 | 0.00 | 0.00 | 80 | 1022.3 |
| 20260901223156 | 58 | 131 | 4.0 | 7.0 | 0.00 | 0.00 | 0.00 | 80 | 1022.2 |
| 20260901222946 | 58 | 124 | 4.0 | 7.0 | 0.00 | 0.00 | 0.00 | 79 | 1022.2 |
| 20260901222742 | 58 | 107 | 4.0 | 7.0 | 0.00 | 0.00 | 0.00 | 79 | 1022.3 |
| 20260901222541 | 58 | 121 | 4.0 | 7.0 | 0.00 | 0.00 | 0.00 | 79 | 1022.2 |
| 20260901222331 | 58 | 98 | 4.0 | 7.0 | 0.00 | 0.00 | 0.00 | 79 | 1022.3 |
| 20260901222126 | 58 | 119 | 4.0 | 7.0 | 0.00 | 0.00 | 0.00 | 79 | 1022.2 |
| 20260901221926 | 58 | 112 | 4.0 | 7.0 | 0.00 | 0.00 | 0.00 | 79 | 1022.2 |
| 20260901221726 | 58 | 92 | 4.0 | 7.0 | 0.00 | 0.00 | 0.00 | 79 | 1022.2 |
| 20260901221526 | 58 | 109 | 4.0 | 7.0 | 0.00 | 0.00 | 0.00 | 79 | 1022.1 |
| 20260901221319 | 58 | 136 | 4.0 | 7.0 | 0.00 | 0.00 | 0.00 | 79 | 1022.2 |
| 20260901221111 | 59 | 108 | 4.0 | 6.0 | 0.00 | 0.00 | 0.00 | 78 | 1022.1 |
| 20260901220902 | 59 | 108 | 4.0 | 7.0 | 0.00 | 0.00 | 0.00 | 78 | 1022.2 |
| 20260901220703 | 59 | 127 | 4.0 | 7.0 | 0.00 | 0.00 | 0.00 | 78 | 1022.3 |
| 20260901220500 | 59 | 124 | 4.0 | 7.0 | 0.00 | 0.00 | 0.00 | 78 | 1022.3 |
| 20260901220255 | 59 | 127 | 4.0 | 7.0 | 0.00 | 0.00 | 0.00 | 78 | 1022.3 |
| 20260901215737 | 59 | 115 | 4.0 | 7.0 | 0.00 | 0.00 | 0.00 | 77 | 1022.3 |
| 20260901215527 | 59 | 125 | 4.0 | 7.0 | 0.00 | 0.00 | 0.00 | 77 | 1022.3 |
| 20260901215318 | 59 | 99 | 4.0 | 7.0 | 0.00 | 0.00 | 0.00 | 77 | 1022.4 |
| 20260901215110 | 59 | 100 | 4.0 | 7.0 | 0.00 | 0.00 | 0.00 | 77 | 1022.4 |
| 20260901214900 | 59 | 117 | 4.0 | 6.0 | 0.00 | 0.00 | 0.00 | 77 | 1022.3 |
| 20260901214656 | 59 | 113 | 4.0 | 6.0 | 0.00 | 0.00 | 0.00 | 77 | 1022.2 |
| 20260901214456 | 59 | 109 | 3.0 | 6.0 | 0.00 | 0.00 | 0.00 | 77 | 1022.4 |
| 20260901214248 | 59 | 105 | 3.0 | 6.0 | 0.00 | 0.00 | 0.00 | 77 | 1022.4 |
| 20260901214041 | 59 | 76 | 3.0 | 6.0 | 0.00 | 0.00 | 0.00 | 77 | 1022.3 |
| 20260901213835 | 59 | 103 | 3.0 | 6.0 | 0.00 | 0.00 | 0.00 | 77 | 1022.4 |
| 20260901213631 | 60 | 134 | 4.0 | 6.0 | 0.00 | 0.00 | 0.00 | 77 | 1022.4 |
| 20260901213425 | 60 | 117 | 4.0 | 6.0 | 0.00 | 0.00 | 0.00 | 77 | 1022.4 |
| 20260901213219 | 60 | 111 | 4.0 | 6.0 | 0.00 | 0.00 | 0.00 | 77 | 1022.3 |
| 20260901213017 | 60 | 82 | 4.0 | 6.0 | 0.00 | 0.00 | 0.00 | 77 | 1022.3 |
| 20260901212809 | 60 | 113 | 4.0 | 6.0 | 0.00 | 0.00 | 0.00 | 77 | 1022.2 |
| 20260901212607 | 60 | 139 | 3.0 | 5.0 | 0.00 | 0.00 | 0.00 | 77 | 1022.3 |
| 20260901212404 | 60 | 134 | 3.0 | 5.0 | 0.00 | 0.00 | 0.00 | 77 | 1022.3 |
| 20260901212157 | 60 | 126 | 3.0 | 5.0 | 0.00 | 0.00 | 0.00 | 77 | 1022.3 |
| 20260901211955 | 60 | 120 | 3.0 | 5.0 | 0.00 | 0.00 | 0.00 | 77 | 1022.3 |
| 20260901211439 | 60 | 116 | 3.0 | 5.0 | 0.00 | 0.00 | 0.00 | 76 | 1022.4 |
| 20260901211234 | 60 | 103 | 3.0 | 5.0 | 0.00 | 0.00 | 0.00 | 76 | 1022.4 |
| 20260901211029 | 60 | 106 | 3.0 | 5.0 | 0.00 | 0.00 | 0.00 | 76 | 1022.5 |
| 20260901210830 | 60 | 80 | 3.0 | 5.0 | 0.00 | 0.00 | 0.00 | 75 | 1022.5 |
| 20260901210307 | 60 | 119 | 3.0 | 5.0 | 0.00 | 0.00 | 0.00 | 75 | 1022.5 |
| 20260901210058 | 61 | 112 | 3.0 | 5.0 | 0.00 | 0.00 | 0.00 | 75 | 1022.5 |
| 20260901205849 | 61 | 110 | 2.0 | 5.0 | 0.00 | 0.00 | 0.00 | 75 | 1022.6 |
| 20260901205642 | 61 | 115 | 2.0 | 4.0 | 0.00 | 0.00 | 0.00 | 75 | 1022.5 |
| 20260901205438 | 61 | 124 | 2.0 | 4.0 | 0.00 | 0.00 | 0.00 | 74 | 1022.5 |
| 20260901205233 | 61 | 125 | 2.0 | 4.0 | 0.00 | 0.00 | 0.00 | 74 | 1022.6 |
| 20260901205027 | 61 | 114 | 2.0 | 4.0 | 0.00 | 0.00 | 0.00 | 74 | 1022.6 |
| 20260901204823 | 61 | 116 | 2.0 | 4.0 | 0.00 | 0.00 | 0.00 | 74 | 1022.6 |
| 20260901204613 | 61 | 119 | 2.0 | 4.0 | 0.00 | 0.00 | 0.00 | 74 | 1022.6 |
| 20260901204406 | 61 | 129 | 2.0 | 4.0 | 0.00 | 0.00 | 0.00 | 74 | 1022.6 |
| 20260901204204 | 61 | 101 | 2.0 | 4.0 | 0.00 | 0.00 | 0.00 | 73 | 1022.6 |
| 20260901204000 | 61 | 136 | 2.0 | 4.0 | 0.00 | 0.00 | 0.00 | 73 | 1022.6 |
| 20260901203751 | 61 | 119 | 2.0 | 4.0 | 0.00 | 0.00 | 0.00 | 73 | 1022.6 |
| 20260901202553 | 62 | 127 | 1.0 | 3.0 | 0.00 | 0.00 | 0.00 | 71 | 1022.5 |
| 20260901202347 | 62 | 123 | 1.0 | 3.0 | 0.00 | 0.00 | 0.00 | 71 | 1022.6 |
| 20260901202142 | 62 | 107 | 1.0 | 2.0 | 0.00 | 0.00 | 0.00 | 71 | 1022.6 |
| 20260901201940 | 62 | 116 | 1.0 | 2.0 | 0.00 | 0.00 | 0.00 | 71 | 1022.6 |
| 20260901201738 | 62 | 113 | 1.0 | 2.0 | 0.00 | 0.00 | 0.00 | 71 | 1022.5 |
| 20260901201528 | 63 | 105 | 1.0 | 2.0 | 0.00 | 0.00 | 0.00 | 71 | 1022.6 |
| 20260901201324 | 63 | 103 | 1.0 | 2.0 | 0.00 | 0.00 | 0.00 | 70 | 1022.6 |
| 20260901200800 | 63 | 115 | 1.0 | 2.0 | 0.00 | 0.00 | 0.00 | 70 | 1022.6 |
| 20260901195912 | 63 | 100 | 1.0 | 2.0 | 0.00 | 0.00 | 0.00 | 69 | 1022.6 |
| 20260901195713 | 63 | 122 | 1.0 | 2.0 | 0.00 | 0.00 | 0.00 | 69 | 1022.5 |
| 20260901195513 | 63 | 113 | 1.0 | 2.0 | 0.00 | 0.00 | 0.00 | 69 | 1022.5 |
| 20260901195306 | 63 | 93 | 0.0 | 2.0 | 0.00 | 0.00 | 0.00 | 69 | 1022.5 |
| 20260901195102 | 63 | 107 | 0.0 | 2.0 | 0.00 | 0.00 | 0.00 | 69 | 1022.5 |
| 20260901194851 | 63 | 129 | 0.0 | 2.0 | 0.00 | 0.00 | 0.00 | 69 | 1022.5 |
| 20260901194645 | 63 | 110 | 1.0 | 2.0 | 0.00 | 0.00 | 0.00 | 69 | 1022.4 |
| 20260901194120 | 64 | 93 | 1.0 | 2.0 | 0.00 | 0.00 | 0.00 | 68 | 1022.3 |
| 20260901193912 | 64 | 113 | 0.0 | 2.0 | 0.00 | 0.00 | 0.00 | 68 | 1022.4 |
| 20260901193353 | 64 | 113 | 0.0 | 1.0 | 0.00 | 0.00 | 0.00 | 68 | 1022.3 |
| 20260901192510 | 64 | 113 | 0.0 | 1.0 | 0.00 | 0.00 | 0.00 | 67 | 1022.3 |
| 20260901191945 | 64 | 113 | 0.0 | 1.0 | 0.00 | 0.00 | 0.00 | 67 | 1022.2 |
| 20260901191742 | 64 | 113 | 0.0 | 1.0 | 0.00 | 0.00 | 0.00 | 67 | 1022.2 |
| 20260901191535 | 64 | 113 | 0.0 | 0.0 | 0.00 | 0.00 | 0.00 | 67 | 1022.2 |
| 20260901191326 | 64 | 113 | 0.0 | 0.0 | 0.00 | 0.00 | 0.00 | 67 | 1022.2 |
| 20260901190809 | 64 | 113 | 0.0 | 1.0 | 0.00 | 0.00 | 0.00 | 68 | 1022.1 |
| 20260901190601 | 64 | 113 | 0.0 | 1.0 | 0.00 | 0.00 | 0.00 | 68 | 1022.1 |
| 20260901190351 | 64 | 112 | 0.0 | 1.0 | 0.00 | 0.00 | 0.00 | 67 | 1022.1 |
| 20260901190142 | 64 | 108 | 0.0 | 1.0 | 0.00 | 0.00 | 0.00 | 67 | 1022.0 |
| 20260901185934 | 65 | 68 | 0.0 | 1.0 | 0.00 | 0.00 | 0.00 | 66 | 1022.0 |
| 20260901185728 | 65 | 68 | 0.0 | 1.0 | 0.00 | 0.00 | 0.00 | 66 | 1022.1 |
| 20260901185526 | 65 | 68 | 0.0 | 1.0 | 0.00 | 0.00 | 0.00 | 66 | 1022.1 |
| 20260901185318 | 65 | 109 | 0.0 | 0.0 | 0.00 | 0.00 | 0.00 | 66 | 1022.1 |
| 20260901185117 | 65 | 109 | 0.0 | 0.0 | 0.00 | 0.00 | 0.00 | 66 | 1022.0 |
| 20260901184914 | 65 | 109 | 0.0 | 0.0 | 0.00 | 0.00 | 0.00 | 66 | 1022.0 |
| 20260901184704 | 65 | 109 | 0.0 | 0.0 | 0.00 | 0.00 | 0.00 | 66 | 1022.0 |
| 20260901184501 | 65 | 109 | 0.0 | 0.0 | 0.00 | 0.00 | 0.00 | 67 | 1022.0 |
| 20260901184254 | 64 | 109 | 0.0 | 1.0 | 0.00 | 0.00 | 0.00 | 67 | 1022.0 |
| 20260901184052 | 65 | 109 | 0.0 | 1.0 | 0.00 | 0.00 | 0.00 | 67 | 1022.0 |
| 20260901183851 | 65 | 109 | 0.0 | 1.0 | 0.00 | 0.00 | 0.00 | 67 | 1021.9 |
| 20260901183642 | 65 | 109 | 0.0 | 1.0 | 0.00 | 0.00 | 0.00 | 67 | 1021.9 |
| 20260901183441 | 65 | 109 | 0.0 | 1.0 | 0.00 | 0.00 | 0.00 | 67 | 1022.0 |
| 20260901183239 | 65 | 109 | 0.0 | 1.0 | 0.00 | 0.00 | 0.00 | 66 | 1022.0 |
| 20260901183035 | 65 | 91 | 0.0 | 0.0 | 0.00 | 0.00 | 0.00 | 66 | 1021.9 |
| 20260901182512 | 65 | 90 | 0.0 | 0.0 | 0.00 | 0.00 | 0.00 | 65 | 1021.9 |
| 20260901182308 | 66 | 90 | 0.0 | 0.0 | 0.00 | 0.00 | 0.00 | 65 | 1021.9 |
| 20260901182107 | 66 | 81 | 0.0 | 0.0 | 0.00 | 0.00 | 0.00 | 65 | 1022.0 |
| 20260901181907 | 66 | 81 | 0.0 | 0.0 | 0.00 | 0.00 | 0.00 | 65 | 1022.0 |
| 20260901181704 | 66 | 81 | 0.0 | 0.0 | 0.00 | 0.00 | 0.00 | 65 | 1021.9 |
| 20260901181456 | 66 | 81 | 0.0 | 0.0 | 0.00 | 0.00 | 0.00 | 65 | 1021.9 |
| 20260901181248 | 66 | 78 | 0.0 | 0.0 | 0.00 | 0.00 | 0.00 | 64 | 1022.0 |
| 20260901181038 | 66 | 78 | 0.0 | 0.0 | 0.00 | 0.00 | 0.00 | 64 | 1021.9 |
| 20260901180838 | 66 | 60 | 0.0 | 0.0 | 0.00 | 0.00 | 0.00 | 64 | 1021.9 |
| 20260901180638 | 66 | 60 | 0.0 | 0.0 | 0.00 | 0.00 | 0.00 | 64 | 1022.0 |
| 20260901180112 | 66 | 60 | 0.0 | 0.0 | 0.00 | 0.00 | 0.00 | 64 | 1022.0 |
| 20260901175907 | 66 | 60 | 0.0 | 0.0 | 0.00 | 0.00 | 0.00 | 64 | 1021.9 |
| 20260901175657 | 67 | 60 | 0.0 | 0.0 | 0.00 | 0.00 | 0.00 | 64 | 1021.9 |
| 20260901175451 | 67 | 60 | 0.0 | 0.0 | 0.00 | 0.00 | 0.00 | 64 | 1021.9 |
| 20260901175243 | 67 | 60 | 0.0 | 0.0 | 0.00 | 0.00 | 0.00 | 64 | 1021.8 |
| 20260901174724 | 67 | 60 | 0.0 | 0.0 | 0.00 | 0.00 | 0.00 | 64 | 1021.9 |
| 20260901174514 | 67 | 60 | 0.0 | 0.0 | 0.00 | 0.00 | 0.00 | 63 | 1021.9 |
| 20260901174308 | 67 | 60 | 0.0 | 0.0 | 0.00 | 0.00 | 0.00 | 63 | 1021.9 |
| 20260901174101 | 67 | 60 | 0.0 | 0.0 | 0.00 | 0.00 | 0.00 | 63 | 1021.9 |
| 20260901173859 | 68 | 60 | 0.0 | 0.0 | 0.00 | 0.00 | 0.00 | 63 | 1021.9 |
| 20260901173656 | 68 | 60 | 0.0 | 0.0 | 0.00 | 0.00 | 0.00 | 62 | 1021.9 |
| 20260901173451 | 68 | 58 | 0.0 | 0.0 | 0.00 | 0.00 | 0.00 | 62 | 1021.9 |
| 20260901173248 | 68 | 58 | 0.0 | 0.0 | 0.00 | 0.00 | 0.00 | 61 | 1021.8 |
| 20260901173043 | 68 | 57 | 0.0 | 0.0 | 0.00 | 0.00 | 0.00 | 61 | 1021.9 |
| 20260901172838 | 68 | 58 | 0.0 | 0.0 | 0.00 | 0.00 | 0.00 | 61 | 1021.8 |
| 20260901172636 | 68 | 58 | 0.0 | 0.0 | 0.00 | 0.00 | 0.00 | 61 | 1021.9 |
| 20260901172432 | 68 | 58 | 0.0 | 0.0 | 0.00 | 0.00 | 0.00 | 61 | 1021.9 |
| 20260901172232 | 68 | 58 | 0.0 | 0.0 | 0.00 | 0.00 | 0.00 | 60 | 1021.9 |
| 20260901172023 | 68 | 58 | 0.0 | 0.0 | 0.00 | 0.00 | 0.00 | 60 | 1021.8 |
| 20260901171820 | 68 | 58 | 0.0 | 0.0 | 0.00 | 0.00 | 0.00 | 61 | 1021.9 |
| 20260901171610 | 68 | 58 | 0.0 | 0.0 | 0.00 | 0.00 | 0.00 | 60 | 1021.9 |
| 20260901171048 | 68 | 58 | 0.0 | 0.0 | 0.00 | 0.00 | 0.00 | 61 | 1021.9 |
| 20260901170839 | 68 | 58 | 0.0 | 0.0 | 0.00 | 0.00 | 0.00 | 60 | 1021.9 |
| 20260901170631 | 68 | 47 | 0.0 | 2.0 | 0.00 | 0.00 | 0.00 | 61 | 1021.9 |
| 20260901170428 | 68 | 46 | 0.0 | 2.0 | 0.00 | 0.00 | 0.00 | 61 | 1021.9 |
| 20260901170226 | 68 | 45 | 0.0 | 2.0 | 0.00 | 0.00 | 0.00 | 61 | 1021.8 |
| 20260901170024 | 68 | 46 | 0.0 | 2.0 | 0.00 | 0.00 | 0.00 | 61 | 1021.9 |
| 20260901165818 | 69 | 46 | 0.0 | 2.0 | 0.00 | 0.00 | 0.00 | 61 | 1021.9 |
| 20260901165614 | 69 | 45 | 0.0 | 2.0 | 0.00 | 0.00 | 0.00 | 61 | 1022.0 |
| 20260901165410 | 69 | 45 | 0.0 | 2.0 | 0.00 | 0.00 | 0.00 | 60 | 1022.1 |
| 20260901165210 | 69 | 46 | 0.0 | 2.0 | 0.00 | 0.00 | 0.00 | 59 | 1022.0 |
| 20260901164959 | 69 | 53 | 0.0 | 2.0 | 0.00 | 0.00 | 0.00 | 60 | 1021.9 |
| 20260901164751 | 69 | 51 | 0.0 | 2.0 | 0.00 | 0.00 | 0.00 | 59 | 1022.0 |
| 20260901164544 | 69 | 51 | 0.0 | 5.0 | 0.00 | 0.00 | 0.00 | 59 | 1022.0 |
| 20260901164335 | 69 | 77 | 1.0 | 5.0 | 0.00 | 0.00 | 0.00 | 59 | 1022.0 |
| 20260901164127 | 70 | 45 | 1.0 | 5.0 | 0.00 | 0.00 | 0.00 | 59 | 1022.1 |
| 20260901163928 | 70 | 50 | 1.0 | 5.0 | 0.00 | 0.00 | 0.00 | 60 | 1022.0 |
| 20260901163723 | 70 | 48 | 1.0 | 5.0 | 0.00 | 0.00 | 0.00 | 60 | 1022.0 |
| 20260901163520 | 70 | 52 | 2.0 | 5.0 | 0.00 | 0.00 | 0.00 | 59 | 1022.0 |
| 20260901163311 | 70 | 60 | 1.0 | 5.0 | 0.00 | 0.00 | 0.00 | 60 | 1022.0 |
| 20260901162738 | 70 | 43 | 1.0 | 5.0 | 0.00 | 0.00 | 0.00 | 58 | 1022.0 |
| 20260901162528 | 70 | 52 | 1.0 | 4.0 | 0.00 | 0.00 | 0.00 | 59 | 1022.1 |
| 20260901162321 | 70 | 50 | 1.0 | 4.0 | 0.00 | 0.00 | 0.00 | 58 | 1022.0 |
| 20260901162117 | 70 | 47 | 1.0 | 4.0 | 0.00 | 0.00 | 0.00 | 58 | 1022.1 |
| 20260901161909 | 70 | 49 | 0.0 | 4.0 | 0.00 | 0.00 | 0.00 | 58 | 1022.0 |
| 20260901161710 | 71 | 74 | 0.0 | 4.0 | 0.00 | 0.00 | 0.00 | 56 | 1021.9 |
| 20260901161501 | 71 | 70 | 0.0 | 4.0 | 0.00 | 0.00 | 0.00 | 55 | 1022.0 |
| 20260901160928 | 71 | 252 | 1.0 | 4.0 | 0.00 | 0.00 | 0.00 | 58 | 1022.0 |
| 20260901160728 | 71 | 54 | 1.0 | 4.0 | 0.00 | 0.00 | 0.00 | 56 | 1022.0 |
| 20260901160519 | 71 | 53 | 0.0 | 3.0 | 0.00 | 0.00 | 0.00 | 56 | 1022.1 |
| 20260901155954 | 72 | 42 | 0.0 | 3.0 | 0.00 | 0.00 | 0.00 | 54 | 1022.0 |
| 20260901155750 | 72 | 55 | 0.0 | 1.0 | 0.00 | 0.00 | 0.00 | 55 | 1022.0 |
| 20260901155541 | 71 | 56 | 0.0 | 0.0 | 0.00 | 0.00 | 0.00 | 56 | 1022.0 |
| 20260901155342 | 71 | 56 | 0.0 | 3.0 | 0.00 | 0.00 | 0.00 | 54 | 1022.0 |
| 20260901155131 | 71 | 37 | 0.0 | 3.0 | 0.00 | 0.00 | 0.00 | 55 | 1022.0 |
| 20260901154608 | 72 | 37 | 0.0 | 2.0 | 0.00 | 0.00 | 0.00 | 55 | 1022.1 |
| 20260901154050 | 71 | 277 | 0.0 | 3.0 | 0.00 | 0.00 | 0.00 | 55 | 1022.0 |
| 20260901153849 | 71 | 200 | 0.0 | 3.0 | 0.00 | 0.00 | 0.00 | 56 | 1021.9 |
| 20260901153648 | 71 | 50 | 0.0 | 3.0 | 0.00 | 0.00 | 0.00 | 54 | 1022.0 |
| 20260901153442 | 71 | 51 | 0.0 | 3.0 | 0.00 | 0.00 | 0.00 | 55 | 1022.0 |
| 20260901153243 | 71 | 51 | 0.0 | 3.0 | 0.00 | 0.00 | 0.00 | 56 | 1022.0 |
| 20260901152715 | 71 | 47 | 0.0 | 3.0 | 0.00 | 0.00 | 0.00 | 55 | 1022.1 |
| 20260901152508 | 71 | 275 | 0.0 | 3.0 | 0.00 | 0.00 | 0.00 | 55 | 1022.0 |
| 20260901152307 | 72 | 273 | 0.0 | 3.0 | 0.00 | 0.00 | 0.00 | 52 | 1022.0 |
| 20260901152104 | 72 | 290 | 0.0 | 3.0 | 0.00 | 0.00 | 0.00 | 54 | 1022.0 |
| 20260901151900 | 72 | 98 | 0.0 | 2.0 | 0.00 | 0.00 | 0.00 | 55 | 1022.0 |
| 20260901151654 | 72 | 91 | 0.0 | 2.0 | 0.00 | 0.00 | 0.00 | 55 | 1022.0 |
| 20260901151445 | 72 | 287 | 0.0 | 2.0 | 0.00 | 0.00 | 0.00 | 54 | 1021.9 |
| 20260901151237 | 72 | 278 | 0.0 | 3.0 | 0.00 | 0.00 | 0.00 | 52 | 1022.1 |
| 20260901151029 | 72 | 264 | 0.0 | 3.0 | 0.00 | 0.00 | 0.00 | 54 | 1022.0 |
| 20260901150826 | 72 | 269 | 0.0 | 3.0 | 0.00 | 0.00 | 0.00 | 54 | 1022.0 |
| 20260901150620 | 72 | 284 | 0.0 | 3.0 | 0.00 | 0.00 | 0.00 | 56 | 1022.1 |
| 20260901150410 | 72 | 213 | 0.0 | 3.0 | 0.00 | 0.00 | 0.00 | 55 | 1021.9 |
| 20260901150201 | 72 | 259 | 0.0 | 2.0 | 0.00 | 0.00 | 0.00 | 56 | 1022.0 |
| 20260901145957 | 72 | 39 | 0.0 | 2.0 | 0.00 | 0.00 | 0.00 | 57 | 1022.0 |
| 20260901145756 | 72 | 51 | 0.0 | 2.0 | 0.00 | 0.00 | 0.00 | 55 | 1022.0 |
| 20260901145553 | 71 | 212 | 0.0 | 2.0 | 0.00 | 0.00 | 0.00 | 55 | 1022.0 |
| 20260901145351 | 71 | 271 | 0.0 | 2.0 | 0.00 | 0.00 | 0.00 | 54 | 1022.1 |
| 20260901145148 | 71 | 255 | 0.0 | 2.0 | 0.00 | 0.00 | 0.00 | 56 | 1022.1 |
| 20260901144938 | 71 | 293 | 0.0 | 2.0 | 0.00 | 0.00 | 0.00 | 56 | 1022.1 |
| 20260901144740 | 71 | 291 | 0.0 | 2.0 | 0.00 | 0.00 | 0.00 | 54 | 1022.1 |
| 20260901144531 | 71 | 306 | 0.0 | 2.0 | 0.00 | 0.00 | 0.00 | 53 | 1022.0 |
| 20260901144332 | 71 | 176 | 0.0 | 2.0 | 0.00 | 0.00 | 0.00 | 53 | 1022.1 |
| 20260901144132 | 72 | 267 | 0.0 | 2.0 | 0.00 | 0.00 | 0.00 | 53 | 1022.0 |
| 20260901143929 | 72 | 257 | 0.0 | 2.0 | 0.00 | 0.00 | 0.00 | 54 | 1022.0 |
| 20260901143410 | 72 | 288 | 0.0 | 4.0 | 0.00 | 0.00 | 0.00 | 55 | 1022.1 |
| 20260901143209 | 72 | 274 | 0.0 | 4.0 | 0.00 | 0.00 | 0.00 | 54 | 1022.1 |
| 20260901143005 | 72 | 288 | 0.0 | 4.0 | 0.00 | 0.00 | 0.00 | 55 | 1022.0 |
| 20260901142756 | 71 | 260 | 0.0 | 4.0 | 0.00 | 0.00 | 0.00 | 56 | 1022.1 |
| 20260901142548 | 71 | 145 | 0.0 | 4.0 | 0.00 | 0.00 | 0.00 | 54 | 1022.0 |
| 20260901142341 | 71 | 288 | 1.0 | 4.0 | 0.00 | 0.00 | 0.00 | 54 | 1022.1 |
| 20260901142139 | 71 | 219 | 1.0 | 4.0 | 0.00 | 0.00 | 0.00 | 59 | 1022.0 |
| 20260901141939 | 71 | 211 | 1.0 | 4.0 | 0.00 | 0.00 | 0.00 | 57 | 1022.0 |
| 20260901141729 | 71 | 295 | 1.0 | 4.0 | 0.00 | 0.00 | 0.00 | 55 | 1022.0 |
| 20260901141526 | 71 | 283 | 0.0 | 4.0 | 0.00 | 0.00 | 0.00 | 57 | 1021.9 |
| 20260901141316 | 71 | 311 | 0.0 | 3.0 | 0.00 | 0.00 | 0.00 | 56 | 1022.1 |
| 20260901141114 | 71 | 70 | 0.0 | 5.0 | 0.00 | 0.00 | 0.00 | 55 | 1022.1 |
| 20260901140907 | 71 | 285 | 0.0 | 5.0 | 0.00 | 0.00 | 0.00 | 58 | 1022.1 |
| 20260901140658 | 70 | 10 | 0.0 | 5.0 | 0.00 | 0.00 | 0.00 | 56 | 1022.1 |
| 20260901140140 | 70 | 296 | 1.0 | 4.0 | 0.00 | 0.00 | 0.00 | 55 | 1022.1 |
| 20260901135936 | 70 | 314 | 0.0 | 4.0 | 0.00 | 0.00 | 0.00 | 56 | 1022.2 |
| 20260901135404 | 70 | 280 | 1.0 | 4.0 | 0.00 | 0.00 | 0.00 | 56 | 1022.3 |
| 20260901135200 | 71 | 305 | 0.0 | 3.0 | 0.00 | 0.00 | 0.00 | 57 | 1022.2 |
| 20260901134637 | 70 | 345 | 0.0 | 3.0 | 0.00 | 0.00 | 0.00 | 56 | 1022.2 |
| 20260901134433 | 71 | 279 | 0.0 | 2.0 | 0.00 | 0.00 | 0.00 | 57 | 1022.3 |
| 20260901133908 | 71 | 291 | 0.0 | 5.0 | 0.00 | 0.00 | 0.00 | 55 | 1022.3 |
| 20260901133706 | 72 | 273 | 0.0 | 4.0 | 0.00 | 0.00 | 0.00 | 56 | 1022.3 |
| 20260901133501 | 72 | 266 | 0.0 | 4.0 | 0.00 | 0.00 | 0.00 | 56 | 1022.3 |
| 20260901133251 | 71 | 46 | 0.0 | 4.0 | 0.00 | 0.00 | 0.00 | 57 | 1022.2 |
| 20260901133049 | 71 | 252 | 0.0 | 4.0 | 0.00 | 0.00 | 0.00 | 58 | 1022.2 |
| 20260901132530 | 71 | 262 | 0.0 | 3.0 | 0.00 | 0.00 | 0.00 | 55 | 1022.3 |
| 20260901132319 | 71 | 262 | 0.0 | 3.0 | 0.00 | 0.00 | 0.00 | 56 | 1022.4 |
| 20260901132109 | 71 | 274 | 0.0 | 3.0 | 0.00 | 0.00 | 0.00 | 56 | 1022.4 |
| 20260901131904 | 71 | 297 | 0.0 | 4.0 | 0.00 | 0.00 | 0.00 | 58 | 1022.3 |
| 20260901131656 | 71 | 274 | 0.0 | 4.0 | 0.00 | 0.00 | 0.00 | 56 | 1022.4 |
| 20260901131446 | 71 | 249 | 0.0 | 4.0 | 0.00 | 0.00 | 0.00 | 56 | 1022.4 |
| 20260901131244 | 71 | 71 | 0.0 | 4.0 | 0.00 | 0.00 | 0.00 | 57 | 1022.4 |
| 20260901131044 | 71 | 230 | 0.0 | 4.0 | 0.00 | 0.00 | 0.00 | 58 | 1022.5 |
| 20260901130835 | 71 | 143 | 0.0 | 4.0 | 0.00 | 0.00 | 0.00 | 56 | 1022.5 |
| 20260901130633 | 71 | 288 | 0.0 | 4.0 | 0.00 | 0.00 | 0.00 | 56 | 1022.5 |
| 20260901130428 | 71 | 286 | 0.0 | 4.0 | 0.00 | 0.00 | 0.00 | 56 | 1022.5 |
| 20260901130227 | 70 | 267 | 0.0 | 4.0 | 0.00 | 0.00 | 0.00 | 59 | 1022.6 |
| 20260901125023 | 70 | 293 | 1.0 | 3.0 | 0.00 | 0.00 | 0.00 | 59 | 1022.8 |
| 20260901124819 | 70 | 288 | 1.0 | 3.0 | 0.00 | 0.00 | 0.00 | 59 | 1022.8 |
| 20260901124612 | 70 | 290 | 1.0 | 5.0 | 0.00 | 0.00 | 0.00 | 57 | 1022.8 |
| 20260901124047 | 71 | 253 | 0.0 | 5.0 | 0.00 | 0.00 | 0.00 | 59 | 1022.8 |
| 20260901123844 | 70 | 276 | 0.0 | 5.0 | 0.00 | 0.00 | 0.00 | 60 | 1022.9 |
| 20260901123644 | 70 | 56 | 0.0 | 3.0 | 0.00 | 0.00 | 0.00 | 59 | 1022.9 |
| 20260901123444 | 70 | 283 | 0.0 | 3.0 | 0.00 | 0.00 | 0.00 | 60 | 1022.9 |
| 20260901123244 | 70 | 257 | 0.0 | 3.0 | 0.00 | 0.00 | 0.00 | 60 | 1022.8 |
| 20260901123040 | 70 | 330 | 0.0 | 3.0 | 0.00 | 0.00 | 0.00 | 60 | 1022.9 |
| 20260901122519 | 69 | 262 | 0.0 | 2.0 | 0.00 | 0.00 | 0.00 | 60 | 1022.9 |
| 20260901122311 | 69 | 256 | 1.0 | 2.0 | 0.00 | 0.00 | 0.00 | 59 | 1022.9 |
| 20260901122109 | 69 | 239 | 1.0 | 1.0 | 0.00 | 0.00 | 0.00 | 59 | 1022.9 |
| 20260901121541 | 70 | 292 | 1.0 | 5.0 | 0.00 | 0.00 | 0.00 | 58 | 1022.8 |
| 20260901121341 | 70 | 316 | 0.0 | 3.0 | 0.00 | 0.00 | 0.00 | 58 | 1022.8 |
| 20260901121133 | 70 | 265 | 0.0 | 3.0 | 0.00 | 0.00 | 0.00 | 59 | 1022.9 |
| 20260901120926 | 70 | 277 | 0.0 | 3.0 | 0.00 | 0.00 | 0.00 | 60 | 1022.9 |
| 20260901120724 | 70 | 324 | 0.0 | 3.0 | 0.00 | 0.00 | 0.00 | 59 | 1022.8 |
| 20260901120149 | 70 | 285 | 0.0 | 3.0 | 0.00 | 0.00 | 0.00 | 60 | 1022.9 |